Location: Unspecified
(43.4680°N, 87.1740°E)
Time: 20:48:27
(UTC+00:00)

Landsat 5 - Pass Details

Date: 17 April 2021
Orbit: 528 x 653 km, 98.2° (Epoch: 12 May)

Event Time Altitude Azimuth Distance (km) Brightness Sun altitude
Rises 22:48:05 0° 169° (S) 2,919 6.9 -7.0°
Reaches altitude 10° 22:50:15 10° 171° (S) 2,028 6.1 -6.7°
Maximum altitude 22:54:42 75° 257° (WSW) 678 3.6 -5.9°
Drops below altitude 10° 22:59:14 10° 343° (NNW) 2,072 6.3 -5.1°
Sets 23:01:29 0° 346° (NNW) 2,987 7.1 -4.8°
